TimeEDT,TemperatureF,Dew PointF,Humidity,Sea Level PressureIn,VisibilityMPH,Wind Direction,Wind SpeedMPH,Gust SpeedMPH,PrecipitationIn,Events,Conditions,WindDirDegrees,DateUTC
12:08 AM,32.0,30.2,93,29.54,1.0,NNW,3.5,-,0.01,Snow,Light Snow,330,2013-04-07 04:08:00
12:36 AM,32.0,30.2,93,29.54,1.2,NNW,5.8,-,0.03,Snow,Light Snow,340,2013-04-07 04:36:00
12:43 AM,32.0,30.2,93,29.54,2.0,NNW,5.8,-,0.03,Snow,Light Snow,340,2013-04-07 04:43:00
12:53 AM,32.0,30.9,96,29.57,2.5,NNW,6.9,-,0.04,Snow,Light Snow,340,2013-04-07 04:53:00
1:07 AM,32.0,30.2,93,29.53,3.0,NNW,8.1,-,0.00,Snow,Light Snow,330,2013-04-07 05:07:00
1:15 AM,32.0,30.2,93,29.53,2.0,NNW,8.1,-,0.00,Snow,Light Snow,330,2013-04-07 05:15:00
1:25 AM,32.0,30.2,93,29.53,1.8,NNW,9.2,-,0.01,Snow,Light Snow,330,2013-04-07 05:25:00
1:35 AM,32.0,30.2,93,29.53,2.0,NNW,11.5,-,0.01,Snow,Light Snow,340,2013-04-07 05:35:00
1:49 AM,32.0,30.2,93,29.54,2.5,NNW,12.7,-,0.01,Snow,Light Snow,330,2013-04-07 05:49:00
1:53 AM,32.0,30.9,96,29.58,3.0,NNW,12.7,-,0.01,Snow,Light Snow,330,2013-04-07 05:53:00
1:59 AM,32.0,30.2,93,29.54,2.5,NNW,12.7,-,0.00,Snow,Light Snow,330,2013-04-07 05:59:00
2:53 AM,32.0,30.0,92,29.59,3.0,NNW,15.0,-,0.01,Snow,Light Snow,330,2013-04-07 06:53:00
3:53 AM,32.0,30.9,96,29.61,2.5,NNW,15.0,-,0.01,Snow,Light Snow,340,2013-04-07 07:53:00
4:04 AM,32.0,30.2,93,29.57,5.0,NNW,15.0,21.9,0.00,Snow,Light Snow,340,2013-04-07 08:04:00
4:25 AM,32.0,30.2,93,29.58,1.8,North,15.0,24.2,0.00,,Overcast,350,2013-04-07 08:25:00
4:46 AM,30.2,30.2,100,29.59,0.8,North,15.0,27.6,0.00,,Mist,350,2013-04-07 08:46:00
4:53 AM,30.9,30.9,100,29.64,1.2,North,17.3,24.2,0.00,,Overcast,350,2013-04-07 08:53:00
5:12 AM,30.2,30.2,100,29.61,3.0,North,15.0,23.0,N/A,,Overcast,350,2013-04-07 09:12:00
5:53 AM,30.0,28.9,96,29.68,10.0,NNW,13.8,25.3,N/A,,Overcast,340,2013-04-07 09:53:00
6:31 AM,30.2,28.4,93,29.66,10.0,NNW,15.0,-,N/A,,Overcast,340,2013-04-07 10:31:00
6:53 AM,30.0,28.0,92,29.73,10.0,NNW,13.8,-,N/A,,Overcast,340,2013-04-07 10:53:00
7:14 AM,30.2,28.4,93,29.69,10.0,NNW,13.8,-,N/A,,Overcast,340,2013-04-07 11:14:00
7:53 AM,30.0,28.0,92,29.76,10.0,NNW,15.0,-,N/A,,Overcast,330,2013-04-07 11:53:00
8:53 AM,30.9,27.0,85,29.79,10.0,NNW,16.1,20.7,N/A,,Overcast,330,2013-04-07 12:53:00
9:53 AM,30.9,27.0,85,29.82,10.0,North,9.2,-,N/A,,Overcast,350,2013-04-07 13:53:00
10:53 AM,32.0,26.1,79,29.83,10.0,North,10.4,-,N/A,,Overcast,350,2013-04-07 14:53:00
11:53 AM,33.8,28.4,81,29.84,10.0,NW,12.7,-,N/A,,Overcast,320,2013-04-07 15:53:00
12:01 PM,33.8,26.6,75,29.84,10.0,NW,15.0,-,N/A,,Overcast,320,2013-04-07 16:01:00
12:53 PM,34.0,27.0,75,29.90,10.0,NW,8.1,-,N/A,,Overcast,320,2013-04-07 16:53:00
1:53 PM,35.1,27.0,72,29.91,10.0,NNW,8.1,-,N/A,,Overcast,330,2013-04-07 17:53:00
2:53 PM,36.0,26.1,67,29.93,10.0,WNW,8.1,-,N/A,,Mostly Cloudy,300,2013-04-07 18:53:00
3:04 PM,35.6,24.8,65,29.89,10.0,NW,10.4,-,N/A,,Scattered Clouds,310,2013-04-07 19:04:00
3:36 PM,35.6,24.8,65,29.90,10.0,WNW,9.2,-,N/A,,Mostly Cloudy,300,2013-04-07 19:36:00
3:53 PM,36.0,25.0,64,29.94,10.0,NW,9.2,-,N/A,,Scattered Clouds,320,2013-04-07 19:53:00
4:53 PM,37.0,25.0,62,29.94,10.0,West,6.9,-,N/A,,Clear,270,2013-04-07 20:53:00
5:53 PM,37.0,24.1,59,29.94,10.0,Calm,Calm,-,N/A,,Clear,0,2013-04-07 21:53:00
6:53 PM,37.9,21.9,53,29.95,10.0,Calm,Calm,-,N/A,,Clear,0,2013-04-07 22:53:00
7:53 PM,36.0,27.0,70,29.94,10.0,South,9.2,-,N/A,,Clear,170,2013-04-07 23:53:00
8:53 PM,34.0,27.0,75,29.96,10.0,South,6.9,-,N/A,,Mostly Cloudy,170,2013-04-08 00:53:00
9:53 PM,30.9,26.1,82,29.98,10.0,SE,5.8,-,N/A,,Clear,140,2013-04-08 01:53:00
10:53 PM,30.9,26.1,82,29.96,10.0,SE,6.9,-,N/A,,Clear,130,2013-04-08 02:53:00
11:53 PM,32.0,27.0,82,29.94,10.0,ESE,8.1,-,N/A,,Clear,110,2013-04-08 03:53:00